Location: Antioch
(38.0049°N, 121.8058°W)
Time: 11:57:18
(UTC+00:00)

Cosmos 2123 Rocket - Pass Details

Date: 11 February 2026
Orbit: 960 x 992 km, 82.9° (Epoch: 17 March)

Event Time Altitude Azimuth Distance (km) Brightness Sun altitude
Rises 12:50:57 0° 355° (N) 3,679 7.0 -26.2°
Reaches altitude 10° 12:53:30 10° 358° (N) 2,723 6.3 -25.7°
Maximum altitude 12:59:43 70° 82° (E) 1,028 4.2 -24.5°
Drops below altitude 10° 13:05:50 10° 166° (SSE) 2,688 6.5 -23.3°
Sets 13:08:20 0° 168° (SSE) 3,628 7.1 -22.8°
